Change the Weather History Date:

Tuesday, May 6, 2014

  Actual Average (KGRK) Record (KGRK)
Temperature  
Mean Temperature 74 °F -  
Max Temperature 88 °F 81 °F 100 °F (1998)
Min Temperature 61 °F 62 °F 50 °F (2013)
Cooling Degree Days 10    
Growing Degree Days 24 (Base 50)    
Moisture  
Dew Point 63 °F    
Average Humidity 63    
Maximum Humidity 89    
Minimum Humidity 46    
Precipitation  
Precipitation 0.00 in - - ()
Sea Level Pressure  
Sea Level Pressure 29.78 in    
Wind  
Wind Speed 12 mph (SSE)    
Max Wind Speed 21 mph    
Max Gust Speed 28 mph    
Visibility 10 miles    
Events      
Averages and records for this station are not official NWS values.
T = Trace of Precipitation, MM = Missing Value Source: NWS Daily Summary

Daily Weather History Graph

Daily Weather History Graph

Search for Another Location

Airport or City:

Trip Planner

Search our weather history database for the weather conditions in past years. The results will help you decide how hot, cold, wet, or windy it might be!

Date:

Astronomy

May. 06, 2014 Rise Set
Actual Time 6:43 AM CDT 8:15 PM CDT
Civil Twilight 6:17 AM CDT 8:41 PM CDT
Nautical Twilight 5:46 AM CDT 9:12 PM CDT
Astronomical Twilight 5:14 AM CDT 9:45 PM CDT
Moon 12:56 PM CDT (5/6) 1:39 AM CDT (5/6)
Length of Visible Light 14h 23m
Length of Day
13h 31m
Waxing Crescent, 46% of the Moon is Illuminated
May 6
Waxing Crescent
May 6
First Quarter
May 14
Full
May 21
Last Quarter
May 28
New

Hourly Weather History & Observations

Time (CDT) Temp. Heat Index Dew Point Humidity Pressure Visibility Wind Dir Wind Speed Gust Speed Precip Events Conditions
12:15 AM 74.1 °F - 59.9 °F 61% 29.85 in 10.0 mi South 8.1 mph - N/A   Clear
12:35 AM 73.0 °F - 59.0 °F 61% 29.84 in 10.0 mi South 11.5 mph 17.3 mph N/A   Clear
12:55 AM 71.8 °F - 58.5 °F 63% 29.84 in 10.0 mi South 11.5 mph 17.3 mph N/A   Clear
1:15 AM 70.7 °F - 57.2 °F 62% 29.84 in 10.0 mi South 10.4 mph 18.4 mph N/A   Clear
1:35 AM 70.7 °F - 58.1 °F 64% 29.83 in 10.0 mi South 8.1 mph - N/A   Clear
1:55 AM 70.7 °F - 58.8 °F 66% 29.82 in 10.0 mi SSE 8.1 mph - N/A   Clear
2:15 AM 70.7 °F - 59.9 °F 69% 29.81 in 10.0 mi SSE 9.2 mph - N/A   Clear
2:35 AM 68.0 °F - 58.6 °F 72% 29.80 in 10.0 mi SSE 8.1 mph - N/A   Clear
6:55 AM 61.7 °F - 58.5 °F 89% 29.80 in 10.0 mi SSE 6.9 mph - N/A   Clear
7:15 AM 62.1 °F - 58.8 °F 89% 29.80 in 10.0 mi SSE 8.1 mph - N/A   Clear
7:35 AM 63.0 °F - 59.2 °F 87% 29.80 in 10.0 mi SSE 6.9 mph - N/A   Clear
7:55 AM 63.7 °F - 59.2 °F 85% 29.81 in 10.0 mi SSE 10.4 mph - N/A   Clear
8:15 AM 65.5 °F - 59.9 °F 82% 29.81 in 10.0 mi SSE 11.5 mph - N/A   Clear
9:15 AM 70.7 °F - 61.9 °F 74% 29.82 in 10.0 mi SSE 11.5 mph - N/A   Clear
9:35 AM 70.7 °F - 61.5 °F 73% 29.82 in 10.0 mi South 11.5 mph 17.3 mph N/A   Clear
9:55 AM 72.0 °F - 62.2 °F 71% 29.83 in 10.0 mi South 11.5 mph 16.1 mph N/A   Clear
10:15 AM 73.2 °F - 62.8 °F 70% 29.83 in 10.0 mi South 15.0 mph 20.7 mph N/A   Clear
10:35 AM 75.6 °F - 64.2 °F 68% 29.83 in 10.0 mi SSE 13.8 mph 18.4 mph N/A   Clear
11:15 AM 76.1 °F - 63.3 °F 64% 29.83 in 10.0 mi SSE 11.5 mph 17.3 mph N/A   Clear
11:35 AM 78.1 °F - 64.2 °F 62% 29.83 in 10.0 mi South 11.5 mph 16.1 mph N/A   Clear
11:55 AM 78.3 °F - 63.7 °F 61% 29.82 in 10.0 mi South 8.1 mph - N/A   Clear
12:15 PM 80.6 °F 82.3 °F 64.8 °F 58% 29.82 in 10.0 mi SSE 13.8 mph 18.4 mph N/A   Clear
12:35 PM 80.6 °F 82.3 °F 64.4 °F 58% 29.80 in 10.0 mi SSE 13.8 mph 19.6 mph N/A   Clear
12:55 PM 80.6 °F 82.2 °F 64.2 °F 57% 29.80 in 10.0 mi SE 13.8 mph 17.3 mph N/A   Clear
1:15 PM 82.0 °F 83.6 °F 64.2 °F 55% 29.79 in 10.0 mi South 13.8 mph 19.6 mph N/A   Clear
1:35 PM 82.2 °F 83.7 °F 63.9 °F 54% 29.78 in 10.0 mi SSE 13.8 mph 19.6 mph N/A   Clear
1:55 PM 82.6 °F 84.1 °F 64.4 °F 54% 29.78 in 10.0 mi SSE 15.0 mph 20.7 mph N/A   Clear
2:15 PM 82.8 °F 84.3 °F 64.6 °F 54% 29.77 in 10.0 mi SSE 16.1 mph 23.0 mph N/A   Clear
2:35 PM 82.6 °F 84.1 °F 64.4 °F 54% 29.76 in 10.0 mi SE 15.0 mph 26.5 mph N/A   Clear
2:55 PM 83.3 °F 84.8 °F 64.6 °F 53% 29.75 in 7.0 mi SSE 16.1 mph 24.2 mph N/A   Clear
3:15 PM 83.3 °F 84.8 °F 64.8 °F 53% 29.75 in 10.0 mi SSE 16.1 mph 25.3 mph N/A   Clear
3:35 PM 84.0 °F 85.4 °F 63.9 °F 51% 29.75 in 10.0 mi SSE 12.7 mph 20.7 mph N/A   Clear
3:55 PM 83.3 °F 84.6 °F 63.9 °F 52% 29.74 in 10.0 mi SE 15.0 mph 25.3 mph N/A   Clear
4:15 PM 83.5 °F 84.7 °F 63.7 °F 51% 29.73 in 10.0 mi SSE 16.1 mph 25.3 mph N/A   Clear
4:35 PM 84.4 °F 85.4 °F 63.5 °F 49% 29.73 in 10.0 mi SSE 16.1 mph 23.0 mph N/A   Clear
4:55 PM 84.4 °F 85.6 °F 63.7 °F 50% 29.72 in 10.0 mi SSE 15.0 mph 23.0 mph N/A   Clear
5:15 PM 85.6 °F 86.6 °F 63.5 °F 47% 29.72 in 10.0 mi SSE 16.1 mph 23.0 mph N/A   Clear
5:35 PM 87.3 °F 88.9 °F 64.6 °F 47% 29.71 in 10.0 mi SSE 19.6 mph 24.2 mph N/A   Clear
5:55 PM 88.2 °F 89.9 °F 64.8 °F 46% 29.71 in 10.0 mi SE 13.8 mph 24.2 mph N/A   Clear
6:15 PM 85.6 °F 86.6 °F 63.1 °F 47% 29.72 in 10.0 mi SSE 13.8 mph 18.4 mph N/A   Clear
6:35 PM 84.4 °F 85.9 °F 64.4 °F 51% 29.72 in 10.0 mi SE 16.1 mph 23.0 mph N/A   Clear
6:55 PM 83.3 °F 84.6 °F 64.0 °F 52% 29.72 in 10.0 mi SE 17.3 mph 23.0 mph N/A   Clear
7:15 PM 81.9 °F 83.2 °F 63.9 °F 54% 29.72 in 10.0 mi SSE 17.3 mph 24.2 mph N/A   Clear
7:35 PM 81.9 °F 83.4 °F 64.0 °F 55% 29.72 in 10.0 mi SE 20.7 mph 27.6 mph N/A   Clear
7:55 PM 80.6 °F 82.2 °F 64.0 °F 57% 29.73 in 10.0 mi SSE 15.0 mph 23.0 mph N/A   Clear
8:15 PM 80.6 °F 82.4 °F 64.9 °F 59% 29.74 in 10.0 mi SSE 16.1 mph 23.0 mph N/A   Clear
8:35 PM 78.3 °F - 63.1 °F 60% 29.75 in 10.0 mi SSE 13.8 mph 20.7 mph N/A   Clear
8:55 PM 78.1 °F - 63.7 °F 61% 29.75 in 10.0 mi SSE 13.8 mph 18.4 mph N/A   Clear
9:15 PM 78.1 °F - 64.4 °F 63% 29.75 in 10.0 mi SSE 15.0 mph 20.7 mph N/A   Clear
9:35 PM 78.1 °F - 64.9 °F 64% 29.75 in 10.0 mi SSE 15.0 mph 19.6 mph N/A   Clear
9:55 PM 75.7 °F - 63.7 °F 66% 29.75 in 10.0 mi SSE 12.7 mph 19.6 mph N/A   Clear
10:15 PM 75.6 °F - 64.6 °F 69% 29.78 in 10.0 mi SSE 12.7 mph 24.2 mph N/A   Clear
10:35 PM 75.6 °F - 65.3 °F 70% 29.78 in 10.0 mi SSE 13.8 mph 19.6 mph N/A   Clear
10:55 PM 75.6 °F - 66.0 °F 72% 29.78 in 10.0 mi SSE 15.0 mph 20.7 mph N/A   Clear
11:15 PM 75.6 °F - 66.6 °F 74% 29.79 in 10.0 mi SSE 11.5 mph 20.7 mph N/A   Clear
11:35 PM 73.0 °F - 64.9 °F 76% 29.80 in 10.0 mi SSE 12.7 mph - N/A   Clear
11:55 PM 72.3 °F - 64.9 °F 78% 29.80 in 10.0 mi SSE 11.5 mph 23.0 mph N/A   Clear